Kingman, AZ

4:27 AM MST on December 18, 2017 (GMT -0700)
Kingman

Weather History for KIGM - March, 2012

Change the Weather History Date:

Saturday, March 24, 2012

  Actual Average Record
Temperature  
Mean Temperature 61 °F 53 °F  
Max Temperature 74 °F 68 °F 83 °F (1956)
Min Temperature 48 °F 39 °F 16 °F (1904)
Degree Days  
Heating Degree Days 4 12  
Month to date heating degree days 343 339  
Since 1 July heating degree days 2836 2752  
Cooling Degree Days 0 0  
Month to date cooling degree days 0 0  
Year to date cooling degree days 0 0  
Growing Degree Days 10 (Base 50)    
Moisture  
Dew Point 29 °F    
Average Humidity 38    
Maximum Humidity 56    
Minimum Humidity 19    
Precipitation  
Precipitation 0.00 in 0.02 in 1.12 in (1906)
Month to date precipitation 1.04 0.62  
Year to date precipitation 1.81 2.78  
Sea Level Pressure  
Sea Level Pressure 29.83 in    
Wind  
Wind Speed 10 mph (SSE)    
Max Wind Speed 22 mph    
Max Gust Speed 26 mph    
Visibility 10 miles    
Events      
T = Trace of Precipitation, MM = Missing Value Source: NWS Daily Summary

Daily Weather History Graph

Daily Weather History Graph

Search for Another Location

Airport or City:

Trip Planner

Search our weather history database for the weather conditions in past years. The results will help you decide how hot, cold, wet, or windy it might be!

Date:

Astronomy

Mar. 24, 2012 Rise Set
Actual Time 6:32 AM MST 6:51 PM MST
Civil Twilight 6:07 AM MST 7:16 PM MST
Nautical Twilight 5:37 AM MST 7:46 PM MST
Astronomical Twilight 5:07 AM MST 8:16 PM MST
Moon 7:20 AM MST (3/24) 9:06 PM MST (3/24)
Length of Visible Light 13h 09m
Length of Day
12h 18m
Waxing Crescent, 4% of the Moon is Illuminated
Mar 24
Waxing Crescent
Mar 30
First Quarter
Apr 6
Full
Apr 13
Last Quarter
Apr 21
New

Hourly Weather History & Observations

Time (MST) Temp. Dew Point Humidity Pressure Visibility Wind Dir Wind Speed Gust Speed Precip Events Conditions
12:48 AM 48.9 °F 33.1 °F 54% 29.87 in 10.0 mi SE 8.1 mph - N/A   Clear
1:48 AM 50.0 °F 32.0 °F 50% 29.86 in 10.0 mi South 5.8 mph - N/A   Clear
2:48 AM 53.1 °F 30.0 °F 41% 29.83 in 10.0 mi SE 13.8 mph - N/A   Clear
3:48 AM 53.1 °F 30.0 °F 41% 29.82 in 10.0 mi SE 12.7 mph - N/A   Clear
4:48 AM 53.1 °F 30.0 °F 41% 29.83 in 10.0 mi SE 12.7 mph - N/A   Clear
5:48 AM 52.0 °F 30.0 °F 43% 29.84 in 10.0 mi SE 16.1 mph - N/A   Clear
6:48 AM 50.0 °F 30.9 °F 48% 29.86 in 10.0 mi SE 10.4 mph - N/A   Clear
7:48 AM 55.0 °F 34.0 °F 45% 29.89 in 10.0 mi SE 5.8 mph - N/A   Clear
8:48 AM 62.1 °F 32.0 °F 32% 29.88 in 10.0 mi SE 3.5 mph - N/A   Clear
9:48 AM 64.9 °F 32.0 °F 29% 29.87 in 10.0 mi WNW 5.8 mph - N/A   Clear
10:48 AM 68.0 °F 28.0 °F 22% 29.86 in 10.0 mi Calm Calm - N/A   Clear
11:48 AM 71.1 °F 30.9 °F 23% 29.84 in 10.0 mi Variable 4.6 mph - N/A   Clear
12:16 PM 71.6 °F 30.2 °F 22% 29.98 in 10.0 mi SE 10.4 mph 26.5 mph N/A   Clear
12:48 PM 72.0 °F 27.0 °F 19% 29.83 in 10.0 mi WSW 15.0 mph - N/A   Clear
1:48 PM 72.0 °F 28.9 °F 20% 29.82 in 10.0 mi SW 16.1 mph - N/A   Clear
2:48 PM 73.0 °F 28.0 °F 19% 29.80 in 10.0 mi SW 17.3 mph 24.2 mph N/A   Clear
3:48 PM 72.0 °F 27.0 °F 19% 29.79 in 10.0 mi SW 20.7 mph - N/A   Clear
4:48 PM 71.1 °F 26.1 °F 19% 29.79 in 10.0 mi SW 13.8 mph - N/A   Clear
5:48 PM 69.1 °F 26.1 °F 20% 29.79 in 10.0 mi SW 11.5 mph - N/A   Clear
6:48 PM 63.0 °F 30.0 °F 29% 29.80 in 10.0 mi South 4.6 mph - N/A   Clear
7:48 PM 59.0 °F 30.9 °F 35% 29.81 in 10.0 mi South 8.1 mph - N/A   Clear
8:48 PM 62.1 °F 26.1 °F 25% 29.79 in 10.0 mi SSE 6.9 mph - N/A   Clear
9:48 PM 60.1 °F 26.1 °F 27% 29.79 in 10.0 mi SE 12.7 mph - N/A   Clear
10:48 PM 60.1 °F 26.1 °F 27% 29.77 in 10.0 mi ESE 15.0 mph - N/A   Clear
11:48 PM 59.0 °F 27.0 °F 29% 29.75 in 10.0 mi ESE 10.4 mph - N/A   Clear